Miscellaneous Local Product
Issued by NWS Hastings, NE

Home | Current Version | Previous Version | Text Only | Print | Product List | Glossary On
Versions: 1 2 3 4 5 6 7 8 9 10 11 12 13 14 15 16 17 18 19 20 21 22 23 24 25 26 27 28 29 30 31 32 33 34 35 36 37 38 39 40 41 42 43 44 45 46 47 48 49 50
000
AXUS43 KGID 031502
MISGRI

GID CWA HOURLY WEATHER ROUNDUP
NATIONAL WEATHER SERVICE HASTINGS NE
1000 AM CDT SUN MAY 03 2015

NOTE: "FAIR" INDICATES FEW OR NO CLOUDS BELOW 12,000 FEET WITH NO
SIGNIFICANT WEATHER AND/OR OBSTRUCTIONS TO VISIBILITY.

...SOUTH CENTRAL NEBRASKA...

CITY           SKY/WX    TMP DP  RH WIND       PRES   REMARKS
GRAND ISLAND   PTSUNNY   67  52  58 SW7       29.76R
HASTINGS       MOSUNNY   72  51  47 SW6       29.76F
KEARNEY        SUNNY     72  46  40 W9        29.78R
ORD            MOSUNNY   70  47  43 NW3       29.72S
YORK           SUNNY     70  57  64 SW16      29.75R
AURORA         MOSUNNY   69  52  55 SW10      29.75R
LEXINGTON      SUNNY     69  48  48 W8        29.78R
HOLDREGE       SUNNY     70  44  38 W10       29.78S
HEBRON         PTSUNNY   67  55  64 SW6       29.77S

...NEBRASKA PANHANDLE...

CITY           SKY/WX    TMP DP  RH WIND       PRES   REMARKS
CHADRON        SUNNY     58  38  47 NE14G25   29.95R
ALLIANCE       MOSUNNY   59  37  44 N21       29.89R
SCOTTSBLUFF    SUNNY     66  39  37 N14       29.91R
SIDNEY         MOSUNNY   65  42  43 NW17G23   29.90R

...WESTERN AND NORTH CENTRAL NEBRASKA...

CITY           SKY/WX    TMP DP  RH WIND       PRES   REMARKS
VALENTINE      PTSUNNY   58  38  47 N16G28    29.81R
AINSWORTH      PTSUNNY   66  47  50 N22G28    29.78R
ONEILL         SUNNY     66  51  59 NW6       29.73R
BROKEN BOW     MOSUNNY   76  44  32 NW9       29.75S
IMPERIAL       SUNNY     74  42  31 NW15      29.83R
NORTH PLATTE   MOSUNNY   68  47  46 W13       29.79S
MCCOOK         SUNNY     69  46  43 SW7       29.81F

...EASTERN NEBRASKA...

CITY           SKY/WX    TMP DP  RH WIND       PRES   REMARKS
NORFOLK        SUNNY     68  56  65 SW6       29.73R
SO SIOUX CITY  SUNNY     72  55  55 S9        29.75S
TEKAMAH        SUNNY     72  60  66 S17       29.74S
COLUMBUS       SUNNY     70  55  60 S13       29.74F
ALBION         MOSUNNY   65  56  73 S7        29.73S
OMAHA EPPLEY   PTSUNNY   70  59  68 S13       29.75S
OFFUTT AFB     MOSUNNY   70  60  68 S14G22    29.74F
MILLARD        MOSUNNY   69  58  69 S8G20     29.74F
LINCOLN        SUNNY     72  57  59 SW17      29.74F
NEBRASKA CITY  MOSUNNY   70  54  56 SW20      29.77F
BEATRICE       MOSUNNY   70  57  64 S16       29.77S
FALLS CITY     MOSUNNY   72  57  59 S21G26    29.79F

...NORTHERN KANSAS...

CITY           SKY/WX    TMP DP  RH WIND       PRES   REMARKS
GOODLAND       MOSUNNY   69  48  47 W6        29.88R
HILL CITY      SUNNY     75  51  43 W6        29.82S
NORTON         SUNNY     75  41  29 SW9       29.80F
PHILLIPSBURG   SUNNY     77  48  36 SW12      29.79S
SMITH CENTER   SUNNY     73  50  43 SW6       29.79S
BELOIT         SUNNY     75  48  38 W7        29.77S
HAYS           MOSUNNY   77  52  41 SW5       29.81F
RUSSELL        MOSUNNY   74  52  46 SW6       29.79S
CONCORDIA      MOSUNNY   73  54  51 S10       29.77F
SALINA         MOSUNNY   71  56  58 SW16      29.81R
TOPEKA         PTSUNNY   70  57  63 S22       29.84F



USA.gov is the U.S. government's official web portal to all federal, state and local government web resources and services.